Location: *
(33.8649°S, 62.1526°E)
Time: 04:38:38
(UTC+00:00)

Cosmos 2058 - Pass Details

Date: 17 January 2021
Orbit: 561 x 584 km, 82.5° (Epoch: 27 February)

Event Time Altitude Azimuth Distance (km) Brightness Sun altitude
Rises 15:34:42 0° 177° (S) 2,821 6.8 -6.4°
Reaches altitude 10° 15:37:03 10° 168° (SSE) 1,917 5.8 -6.8°
Maximum altitude 15:40:59 37° 100° (E) 925 3.6 -7.5°
Drops below altitude 10° 15:44:53 10° 32° (NNE) 1,903 5.0 -8.2°
Enters shadow 15:45:30 - 29° (NNE) 2,136 5.3 -8.3°
